Temperature
14 14 14 14 14 14 14 14 14 14 14 14 14 14 14 14 13 13 13 13 13 13 13 13 13 13 13 13 13 13 13 13 13 13 14 14 14 14
14 14 14 14 14 14 14 13 13 13 13 14 13 13 13 13 13 13 13 13 13 13 13 13 13 13 12 13 13 13 13 13 13 13 13 13 13 13
14 14 14 14 14 13 13 13 13 13 13 13 13 13 13 13 13 13 13 13 13 13 13 12 12 12 12 12 12 12 12 12 13 13 13 13 13 13
14 14 14 14 13 13 13 13 13 13 13 13 13 13 13 13 13 13 13 13 13 13 12 12 12 12 12 12 12 12 12 12 12 12 12 13 13 13
14 14 14 14 14 13 13 13 13 13 13 13 13 13 13 13 13 13 13 13 13 12 12 12 12 12 12 12 12 12 12 12 12 12 12 12 12 12
14 14 14 14 14 13 13 13 13 13 13 13 13 13 13 13 13 13 13 13 13 13 12 12 12 12 12 12 12 12 12 12 12 12 12 12 12 12
14 14 14 14 14 13 13 13 13 13 13 13 13 13 13 13 12 12 12 12 13 13 13 13 12 12 12 12 12 12 12 12 12 12 12 12 12 12
14 14 14 14 14 13 13 13 13 13 13 13 12 12 13 12 12 12 12 12 12 12 12 12 12 12 12 12 12 12 12 12 12 12 12 12 12 12
14 14 14 14 14 13 13 13 13 13 13 12 12 13 12 12 12 12 12 12 12 12 12 12 12 12 12 12 12 12 12 12 12 12 12 11 11 11
14 14 14 14 14 13 13 13 13 13 13 12 12 12 12 12 12 12 11 12 12 12 11 11 12 12 12 12 12 12 12 11 11 11 11 11 11 11
14 14 14 14 14 13 13 13 13 13 13 12 12 12 12 12 12 11 11 11 11 12 11 11 11 11 11 12 12 12 11 11 11 11 11 11 11 11
14 14 14 13 13 13 13 13 13 13 12 12 12 12 12 12 12 11 11 11 11 11 11 11 11 10 10 11 11 11 11 11 11 11 11 11 11 11
14 14 13 13 13 13 13 12 12 12 12 12 12 12 11 11 11 11 11 10 10 10 10 10 10 10 10 10 10 11 11 11 11 11 11 11 10 10
13 13 13 13 13 12 12 12 12 11 11 11 11 11 11 11 11 11 11 10 10 10 10 10 10 10 9 9 9 10 10 10 10 10 10 10 10 10
13 13 13 12 12 12 12 11 11 11 11 11 11 11 10 10 10 10 10 10 10 10 10 10 9 9 9 9 9 9 9 10 10 10 10 10 10 10
13 12 12 12 11 11 11 11 11 10 10 10 10 10 10 10 10 10 10 10 10 10 10 10 9 9 9 9 9 9 9 9 10 10 10 10 10 10
12 12 11 11 11 11 11 11 10 10 10 10 10 10 10 10 10 9 9 9 9 9 9 10 9 9 9 8 8 8 8 9 9 9 9 9 10 10
11 11 11 11 11 11 10 10 10 10 10 9 9 9 9 9 9 9 9 8 8 8 8 8 8 8 8 8 8 8 8 8 8 9 8 8 9 9
11 11 11 10 10 10 10 9 9 9 9 9 9 9 8 8 8 8 8 8 8 8 8 8 7 7 7 7 7 8 8 8 8 8 8 8 8 9
10 10 10 10 9 9 9 9 9 9 8 8 8 8 8 7 7 7 7 7 7 7 7 7 7 7 6 6 6 7 7 7 7 7 7 8 8 8
9 9 9 9 9 9 8 8 8 8 8 8 7 7 7 7 7 6 6 6 6 6 6 6 6 6 6 6 6 6 7 7 7 7 7 7 7 7
9 9 9 8 8 8 8 7 7 7 7 7 7 7 6 6 6 6 6 6 6 6 6 6 6 6 6 6 6 6 6 7 7 7 7 7 7 7
8 8 8 7 7 7 7 7 7 7 7 6 6 6 6 6 6 6 6 5 5 5 5 5 5 5 5 5 5 6 6 6 6 7 7 8 7 7
Wind_Speed
4 4 3 2 2 2 2 3 4 2 1 2 2 2 3 3 3 3 4 6 7 7 8 9 10 11 11 11 11 11 12 12 12 12 12 13 14 15
3 4 3 2 2 2 2 2 2 3 2 2 2 2 3 4 4 4 6 8 8 9 10 10 11 11 12 12 12 12 13 13 13 13 13 13 14 14
4 4 4 3 3 2 2 2 2 2 2 2 2 2 2 3 4 5 6 7 8 10 11 11 11 11 11 12 12 13 13 14 14 14 14 14 14 14
5 5 4 3 3 3 3 3 3 3 3 3 2 2 3 3 4 5 6 6 8 10 11 11 11 11 11 12 12 13 13 14 14 15 15 15 15 15
6 6 6 5 4 4 4 3 3 3 3 3 3 2 3 3 3 4 5 5 7 9 10 10 11 12 12 13 13 14 14 14 15 15 16 16 16 16
6 7 7 7 7 6 5 5 4 4 3 4 4 4 4 3 3 4 5 4 5 7 9 10 11 12 13 14 15 15 15 15 16 16 16 17 17 17
6 7 7 9 10 8 6 6 5 5 4 4 5 4 5 4 4 3 5 6 6 5 5 6 7 8 11 13 15 16 17 17 16 17 17 17 18 18
7 7 7 8 9 11 11 10 9 7 7 5 5 6 8 7 5 5 5 5 6 3 3 6 5 8 11 12 15 18 18 18 18 18 18 18 19 19
8 7 6 7 8 7 8 9 10 12 12 8 9 10 9 7 6 7 7 7 8 6 4 8 8 9 11 14 18 20 20 20 20 19 19 19 19 19
8 8 8 7 7 7 6 7 7 8 10 10 10 11 10 9 8 8 8 8 8 7 6 7 9 9 10 13 17 19 21 21 20 20 19 19 19 19
8 8 8 8 9 9 6 7 8 8 9 12 14 14 16 15 11 6 6 6 8 8 5 5 7 8 9 10 13 17 18 20 20 20 20 20 20 18
6 6 9 9 9 8 7 7 8 8 6 6 7 9 11 12 12 10 8 8 8 7 5 5 6 5 7 6 7 10 11 15 18 20 20 21 20 14
6 5 5 8 9 9 8 7 10 8 6 6 7 7 7 7 7 7 8 8 9 9 7 5 6 7 7 8 8 9 10 11 12 13 17 19 20 15
6 5 5 6 7 7 6 7 9 7 5 5 6 7 7 7 7 7 9 11 12 13 13 10 8 9 10 12 11 9 10 10 10 11 12 14 16 18
5 5 5 4 4 4 6 8 6 4 4 5 7 7 7 7 7 7 8 8 11 14 15 14 12 11 11 11 12 12 11 11 10 11 11 11 11 9
4 3 4 4 4 4 4 4 3 4 5 6 7 7 6 6 7 6 6 7 7 9 10 12 12 12 11 13 12 13 12 10 10 11 11 11 11 11
3 2 2 2 2 3 3 4 4 4 5 5 6 7 7 7 7 6 5 6 7 9 11 8 8 10 12 12 12 14 13 13 13 12 10 12 12 12
4 2 3 4 4 4 4 4 4 5 5 6 6 6 7 7 8 7 6 7 9 10 10 10 8 8 8 9 13 14 13 13 13 12 11 12 14 13
3 3 4 4 5 5 5 5 5 6 5 6 6 7 7 7 8 8 8 8 9 10 10 9 8 8 11 14 10 11 12 12 12 12 12 12 14 14
3 4 5 5 5 5 5 6 6 6 6 6 7 7 7 7 8 8 8 9 10 10 10 9 9 9 10 13 13 12 12 13 12 13 13 12 13 14
3 4 5 5 5 5 5 6 7 7 7 7 7 8 7 8 8 9 9 11 10 10 11 11 10 11 10 9 11 12 12 13 14 13 12 12 12 12
4 4 4 5 5 5 5 6 7 7 7 7 7 7 7 8 9 10 9 9 9 10 11 11 11 9 8 10 13 15 16 14 12 16 19 16 11 9
4 4 4 5 5 5 5 6 8 8 7 7 8 8 8 8 8 9 9 10 10 11 11 11 10 9 10 11 13 13 16 15 12 11 11 13 19 22
Wind_Direction
139 135 125 127 130 136 139 146 148 165 259 296 302 316 314 290 292 289 283 290 295 297 296 296 297 296 294 292 289 288 289 289 288 284 279 274 270 263
146 140 134 135 131 130 138 140 144 157 205 254 266 291 301 294 289 285 283 292 295 295 296 296 296 294 292 289 286 286 285 285 283 282 280 277 276 272
157 160 163 154 149 149 145 149 156 159 198 257 260 279 284 287 301 299 292 291 292 295 297 297 297 296 295 292 288 285 283 282 280 278 277 276 275 274
181 176 185 173 173 176 175 181 188 191 198 239 263 271 267 278 285 289 289 285 281 285 288 288 290 291 292 290 288 285 283 282 279 276 274 273 272 270
191 193 199 187 199 200 198 204 209 206 206 227 258 262 270 276 287 286 285 284 285 283 283 282 283 284 286 286 285 283 281 280 278 276 273 271 270 268
203 205 205 203 210 208 210 216 215 216 217 232 256 267 269 269 262 275 289 284 288 291 283 281 278 281 282 283 282 281 279 278 277 274 273 271 269 267
214 217 218 218 218 213 217 218 212 222 229 239 255 266 271 269 266 263 277 290 285 269 280 282 281 283 284 282 279 277 276 276 275 273 271 269 267 265
219 225 229 232 231 228 228 224 213 219 231 236 248 256 266 264 264 263 270 286 289 262 263 284 278 280 281 278 275 274 273 273 272 271 270 269 267 264
220 226 235 235 226 233 239 238 233 229 224 230 247 254 261 258 258 268 262 260 268 272 268 284 279 278 280 276 272 270 270 271 271 269 270 270 269 266
223 223 229 239 234 228 241 252 254 250 241 237 242 251 256 257 248 257 268 271 269 264 239 270 281 279 282 281 275 269 267 268 268 267 267 267 266 264
231 229 229 238 241 230 231 248 263 268 260 247 246 255 261 263 258 258 260 262 277 279 229 242 273 280 282 278 275 270 267 268 268 267 266 265 263 263
236 234 230 232 241 234 227 237 255 267 276 283 275 274 272 270 258 237 242 255 268 277 246 225 266 278 285 272 272 276 276 272 268 266 265 263 262 262
233 235 232 227 239 241 228 231 247 262 277 278 282 283 281 275 267 248 233 237 252 260 256 234 265 268 267 281 283 278 275 275 275 271 266 261 258 251
230 233 229 228 239 247 241 244 256 264 264 270 275 278 280 279 278 273 260 248 245 254 262 251 257 265 272 279 282 281 276 272 269 270 270 267 262 252
226 226 229 233 241 247 248 253 251 242 246 257 266 271 270 273 280 283 279 268 263 261 261 255 254 262 262 268 275 278 283 280 268 264 266 265 265 260
226 228 227 229 233 250 259 254 241 236 238 254 265 271 276 280 282 283 285 290 288 285 272 260 255 256 262 264 268 274 274 274 274 269 268 270 266 259
178 194 219 225 235 243 250 253 243 234 239 246 259 272 280 284 285 284 277 281 278 287 294 291 273 260 257 264 270 271 273 273 271 271 269 271 269 263
157 218 235 240 245 252 256 260 255 251 252 255 263 269 276 281 285 285 277 277 281 284 287 293 298 297 289 271 242 262 271 272 274 270 266 268 273 269
180 230 244 248 251 253 256 258 263 265 261 263 268 274 277 280 283 285 285 284 284 285 287 288 287 285 290 293 279 235 260 276 278 276 270 265 270 273
220 238 248 253 256 260 264 267 271 277 276 274 274 276 277 279 281 282 283 283 285 288 289 287 281 277 278 286 290 285 255 263 273 276 276 274 271 271
240 246 254 260 266 268 271 274 275 276 276 275 275 274 274 276 277 278 278 278 280 284 286 288 287 279 281 281 279 279 279 257 252 264 275 277 277 275
260 261 266 268 269 272 276 280 281 280 281 279 277 275 273 271 273 276 277 278 279 280 285 289 292 291 282 277 280 285 290 289 270 254 252 250 259 266
272 272 272 272 272 275 277 281 282 281 279 279 278 277 277 275 274 276 278 279 281 284 287 291 293 288 282 279 280 282 285 290 291 288 280 257 244 250
Height
1559 1560 1561 1562 1563 1564 1565 1566 1567 1567 1567 1568 1568 1568 1569 1569 1569 1568 1568 1567 1566 1565 1564 1564 1563 1562 1561 1560 1560 1559 1559 1558 1558 1558 1558 1558 1558 1558
1558 1559 1560 1561 1562 1562 1563 1564 1565 1566 1566 1566 1566 1566 1566 1566 1566 1566 1565 1565 1564 1563 1562 1561 1560 1559 1558 1557 1556 1555 1554 1554 1553 1553 1553 1552 1552 1552
1557 1558 1559 1560 1560 1561 1562 1562 1563 1563 1564 1564 1564 1564 1564 1564 1563 1563 1562 1561 1561 1560 1559 1557 1556 1555 1554 1553 1552 1551 1550 1549 1549 1548 1547 1547 1546 1546
1555 1556 1557 1558 1559 1560 1560 1560 1561 1561 1562 1561 1561 1561 1561 1561 1560 1559 1558 1558 1557 1556 1554 1553 1552 1551 1550 1548 1547 1546 1545 1544 1543 1543 1542 1542 1541 1541
1553 1554 1555 1556 1557 1557 1558 1558 1559 1559 1559 1558 1558 1558 1557 1557 1556 1555 1554 1553 1552 1551 1550 1549 1547 1546 1545 1543 1542 1541 1540 1539 1538 1537 1536 1536 1535 1535
1551 1552 1553 1554 1554 1555 1555 1556 1556 1556 1556 1555 1555 1554 1553 1553 1552 1551 1549 1549 1547 1546 1545 1544 1542 1541 1539 1538 1536 1535 1534 1533 1532 1531 1530 1530 1529 1529
1548 1549 1550 1551 1552 1552 1552 1552 1553 1552 1552 1551 1551 1550 1549 1549 1547 1546 1544 1543 1542 1541 1539 1538 1537 1535 1533 1532 1530 1529 1527 1526 1525 1524 1523 1523 1522 1522
1545 1547 1547 1548 1548 1548 1548 1548 1549 1548 1548 1547 1546 1545 1544 1544 1543 1541 1539 1537 1535 1536 1533 1531 1531 1528 1527 1525 1524 1522 1521 1519 1518 1517 1516 1515 1515 1514
1542 1543 1543 1544 1544 1544 1544 1544 1544 1544 1544 1543 1541 1540 1540 1539 1538 1536 1534 1532 1530 1529 1527 1523 1523 1521 1520 1518 1517 1515 1513 1512 1511 1509 1508 1507 1507 1506
1537 1538 1539 1539 1540 1540 1540 1539 1539 1539 1538 1537 1536 1535 1535 1534 1532 1530 1528 1526 1523 1523 1521 1517 1515 1513 1512 1510 1509 1508 1506 1505 1503 1502 1501 1500 1499 1498
1532 1533 1534 1534 1535 1535 1534 1534 1534 1534 1533 1532 1531 1530 1529 1528 1526 1524 1522 1519 1516 1515 1514 1510 1507 1505 1503 1501 1501 1500 1499 1497 1496 1494 1493 1492 1491 1490
1527 1528 1529 1529 1530 1529 1529 1528 1527 1528 1527 1526 1525 1524 1523 1521 1520 1518 1515 1513 1510 1507 1506 1504 1501 1498 1494 1492 1493 1492 1491 1489 1488 1486 1485 1484 1483 1481
1521 1522 1523 1523 1523 1523 1522 1522 1521 1521 1520 1519 1518 1517 1516 1514 1513 1511 1509 1507 1504 1500 1500 1498 1494 1492 1489 1484 1483 1483 1482 1480 1479 1477 1476 1475 1474 1473
1515 1516 1516 1517 1516 1516 1516 1515 1515 1515 1514 1513 1511 1510 1508 1507 1505 1504 1502 1499 1497 1494 1493 1491 1487 1485 1481 1477 1474 1473 1473 1472 1470 1468 1467 1466 1465 1464
1510 1510 1511 1511 1510 1510 1510 1510 1509 1509 1508 1506 1505 1504 1502 1500 1498 1496 1494 1492 1489 1487 1485 1483 1480 1477 1474 1470 1467 1465 1463 1461 1461 1459 1457 1456 1455 1454
1504 1505 1505 1505 1505 1504 1504 1504 1504 1503 1502 1501 1499 1497 1495 1493 1491 1489 1486 1484 1481 1479 1478 1476 1473 1470 1466 1463 1460 1456 1455 1452 1451 1450 1448 1446 1445 1444
1500 1500 1500 1500 1500 1500 1499 1499 1498 1497 1496 1494 1493 1491 1488 1486 1484 1482 1479 1476 1473 1470 1468 1467 1465 1462 1458 1456 1452 1448 1446 1444 1442 1441 1438 1436 1435 1434
1495 1495 1495 1495 1495 1494 1494 1493 1492 1492 1490 1488 1486 1484 1481 1479 1476 1474 1472 1469 1466 1463 1461 1459 1456 1453 1449 1446 1445 1441 1438 1435 1434 1432 1430 1427 1424 1424
1491 1490 1490 1490 1490 1489 1488 1487 1486 1485 1483 1481 1479 1477 1475 1472 1470 1467 1465 1462 1459 1457 1454 1452 1449 1446 1442 1437 1435 1435 1431 1427 1425 1423 1421 1418 1415 1414
1485 1485 1485 1485 1484 1483 1482 1481 1479 1478 1476 1474 1472 1470 1468 1465 1463 1460 1458 1455 1452 1449 1446 1444 1442 1439 1436 1431 1426 1424 1423 1420 1417 1414 1411 1409 1406 1405
1480 1480 1479 1479 1478 1477 1476 1474 1473 1471 1469 1467 1465 1463 1461 1459 1456 1454 1451 1448 1445 1442 1439 1436 1434 1432 1428 1424 1419 1414 1413 1412 1409 1406 1403 1400 1397 1395
1475 1474 1474 1473 1472 1470 1469 1468 1466 1464 1462 1460 1458 1457 1455 1452 1449 1447 1444 1441 1438 1435 1432 1429 1426 1424 1420 1417 1411 1407 1404 1402 1400 1398 1395 1393 1390 1387
1470 1469 1468 1467 1466 1464 1463 1462 1460 1458 1456 1454 1452 1450 1448 1445 1443 1440 1437 1434 1431 1428 1425 1422 1419 1416 1413 1409 1405 1400 1397 1394 1391 1388 1386 1384 1382 1380